| time (UTC) | temp F | wind direction | speed MPH | gust MPH | rain 1hr in | rain 24hr in | rain mn in | humidity % | barometer mb |
| 20260831213021 | 61 | 310 | 4.0 | 8.0 | 0.00 | 0.11 | 0.11 | 79 | 1022.2 |
| 20260831212109 | 61 | 315 | 3.0 | 9.0 | 0.00 | 0.11 | 0.11 | 79 | 1021.9 |
| 20260831211107 | 61 | 306 | 4.0 | 11.0 | 0.00 | 0.11 | 0.11 | 78 | 1022.1 |
| 20260831210055 | 62 | 293 | 4.0 | 13.0 | 0.00 | 0.11 | 0.11 | 78 | 1021.9 |
| 20260831205033 | 62 | 293 | 4.0 | 11.0 | 0.00 | 0.11 | 0.11 | 77 | 1021.9 |
| 20260831204021 | 62 | 287 | 3.0 | 9.0 | 0.00 | 0.11 | 0.11 | 78 | 1021.9 |
| 20260831203111 | 62 | 297 | 3.0 | 7.0 | 0.00 | 0.11 | 0.11 | 79 | 1021.8 |
| 20260831202106 | 62 | 293 | 2.0 | 4.0 | 0.00 | 0.11 | 0.11 | 79 | 1021.6 |
| 20260831201031 | 62 | 312 | 2.0 | 4.0 | 0.00 | 0.11 | 0.11 | 80 | 1021.4 |
| 20260831195608 | 62 | 331 | 2.0 | 8.0 | 0.00 | 0.11 | 0.11 | 80 | 1021.0 |
| 20260831194557 | 62 | 180 | 1.0 | 2.0 | 0.00 | 0.11 | 0.11 | 81 | 1020.6 |
| 20260831193526 | 63 | 277 | 3.0 | 8.0 | 0.00 | 0.11 | 0.11 | 77 | 1020.7 |
| 20260831192108 | 61 | 315 | 0.0 | 2.0 | 0.00 | 0.11 | 0.11 | 83 | 1020.5 |
| 20260831190554 | 62 | 298 | 1.0 | 4.0 | 0.00 | 0.11 | 0.11 | 81 | 1020.7 |
| 20260831185544 | 60 | 297 | 1.0 | 4.0 | 0.00 | 0.11 | 0.11 | 83 | 1020.6 |
| 20260831184532 | 60 | 273 | 1.0 | 2.0 | 0.01 | 0.11 | 0.11 | 84 | 1020.5 |
| 20260831183521 | 60 | 279 | 0.0 | 4.0 | 0.01 | 0.11 | 0.11 | 86 | 1020.4 |
| 20260831182108 | 60 | 293 | 0.0 | 2.0 | 0.01 | 0.11 | 0.11 | 85 | 1020.0 |
| 20260831180556 | 60 | 293 | 4.0 | 7.0 | 0.01 | 0.11 | 0.11 | 82 | 1020.2 |
| 20260831175608 | 62 | 298 | 2.0 | 6.0 | 0.01 | 0.11 | 0.11 | 79 | 1020.6 |
| 20260831174109 | 72 | 271 | 6.0 | 13.0 | 0.00 | 0.09 | 0.09 | 57 | 1019.7 |
| 20260831172554 | 73 | 52 | 5.0 | 13.0 | 0.00 | 0.09 | 0.09 | 54 | 1019.2 |
| 20260831171519 | 73 | 337 | 6.0 | 14.0 | 0.00 | 0.09 | 0.09 | 53 | 1019.2 |
| 20260831170056 | 73 | 270 | 3.0 | 7.0 | 0.00 | 0.09 | 0.09 | 54 | 1019.0 |
| 20260831165107 | 74 | 290 | 3.0 | 11.0 | 0.00 | 0.09 | 0.09 | 55 | 1018.8 |
| 20260831164054 | 74 | 338 | 3.0 | 7.0 | 0.00 | 0.09 | 0.09 | 55 | 1018.9 |
| 20260831163020 | 74 | 318 | 3.0 | 11.0 | 0.00 | 0.09 | 0.09 | 55 | 1018.8 |
| 20260831162108 | 74 | 265 | 3.0 | 8.0 | 0.00 | 0.09 | 0.09 | 55 | 1018.7 |
| 20260831160556 | 74 | 90 | 3.0 | 7.0 | 0.00 | 0.09 | 0.09 | 55 | 1018.8 |
| 20260831155607 | 75 | 293 | 3.0 | 9.0 | 0.00 | 0.09 | 0.09 | 55 | 1018.7 |
| 20260831154556 | 76 | 315 | 4.0 | 14.0 | 0.00 | 0.09 | 0.09 | 55 | 1018.8 |
| 20260831153520 | 75 | 256 | 3.0 | 11.0 | 0.00 | 0.09 | 0.09 | 55 | 1018.7 |
| 20260831152107 | 75 | 298 | 4.0 | 9.0 | 0.00 | 0.09 | 0.09 | 56 | 1018.9 |
| 20260831150556 | 75 | 304 | 2.0 | 4.0 | 0.00 | 0.09 | 0.09 | 57 | 1018.8 |
| 20260831145610 | 75 | 186 | 4.0 | 9.0 | 0.00 | 0.09 | 0.09 | 55 | 1018.8 |
| 20260831144554 | 75 | 324 | 6.0 | 13.0 | 0.00 | 0.09 | 0.09 | 54 | 1018.7 |
| 20260831143519 | 76 | 317 | 3.0 | 11.0 | 0.00 | 0.09 | 0.09 | 54 | 1018.9 |
| 20260831142054 | 76 | 293 | 3.0 | 7.0 | 0.00 | 0.09 | 0.09 | 52 | 1019.0 |
| 20260831141107 | 76 | 60 | 3.0 | 11.0 | 0.00 | 0.09 | 0.09 | 52 | 1019.0 |
| 20260831135609 | 75 | 223 | 5.0 | 13.0 | 0.00 | 0.09 | 0.09 | 51 | 1019.1 |
| 20260831134108 | 76 | 284 | 5.0 | 11.0 | 0.00 | 0.09 | 0.09 | 50 | 1019.1 |
| 20260831132555 | 76 | 305 | 6.0 | 13.0 | 0.00 | 0.09 | 0.09 | 51 | 1019.1 |
| 20260831131519 | 74 | 276 | 4.0 | 11.0 | 0.00 | 0.09 | 0.09 | 53 | 1019.1 |
| 20260831130109 | 74 | 233 | 3.0 | 8.0 | 0.00 | 0.09 | 0.09 | 55 | 1019.2 |
| 20260831124531 | 75 | 300 | 5.0 | 15.0 | 0.00 | 0.09 | 0.09 | 55 | 1019.4 |
| 20260831123521 | 77 | 305 | 4.0 | 11.0 | 0.00 | 0.09 | 0.09 | 55 | 1019.4 |
| 20260831122054 | 75 | 293 | 4.0 | 8.0 | 0.00 | 0.09 | 0.09 | 56 | 1019.4 |
| 20260831121107 | 74 | 311 | 4.0 | 13.0 | 0.00 | 0.09 | 0.09 | 57 | 1019.3 |
| 20260831120054 | 75 | 281 | 5.0 | 14.0 | 0.00 | 0.09 | 0.09 | 57 | 1019.4 |
| 20260831115043 | 74 | 350 | 5.0 | 13.0 | 0.00 | 0.09 | 0.09 | 58 | 1019.4 |
| 20260831114031 | 74 | 340 | 6.0 | 20.0 | 0.00 | 0.09 | 0.09 | 60 | 1019.5 |
| 20260831113019 | 72 | 352 | 5.0 | 11.0 | 0.00 | 0.09 | 0.09 | 61 | 1019.7 |
| 20260831112109 | 72 | 303 | 5.0 | 15.0 | 0.00 | 0.09 | 0.09 | 64 | 1019.8 |
| 20260831110555 | 72 | 225 | 4.0 | 8.0 | 0.00 | 0.09 | 0.09 | 66 | 1019.6 |
| 20260831105607 | 71 | 249 | 4.0 | 11.0 | 0.00 | 0.09 | 0.09 | 69 | 1019.6 |
| 20260831104109 | 70 | 17 | 4.0 | 9.0 | 0.00 | 0.09 | 0.09 | 71 | 1019.7 |
| 20260831102555 | 69 | 195 | 3.0 | 6.0 | 0.00 | 0.09 | 0.09 | 75 | 1019.8 |
| 20260831101519 | 69 | 310 | 3.0 | 8.0 | 0.00 | 0.09 | 0.09 | 75 | 1019.7 |
| 20260831100054 | 69 | 293 | 5.0 | 8.0 | 0.00 | 0.09 | 0.09 | 74 | 1019.6 |
| 20260831095059 | 67 | 337 | 0.0 | 4.0 | 0.00 | 0.09 | 0.09 | 82 | 1019.6 |
| 20260831094054 | 66 | 0.0 | 0.0 | 0.00 | 0.09 | 0.09 | 83 | 1019.7 | |
| 20260831093019 | 67 | 93 | 0.0 | 2.0 | 0.00 | 0.09 | 0.09 | 82 | 1019.8 |
| 20260831092109 | 67 | 37 | 1.0 | 4.0 | 0.00 | 0.09 | 0.09 | 80 | 1019.7 |
| 20260831090518 | 67 | 303 | 2.0 | 6.0 | 0.00 | 0.09 | 0.09 | 81 | 1019.9 |
| 20260831085607 | 67 | 295 | 1.0 | 6.0 | 0.00 | 0.09 | 0.09 | 80 | 1019.8 |
| 20260831084107 | 66 | 206 | 1.0 | 6.0 | 0.00 | 0.09 | 0.09 | 83 | 1019.7 |
| 20260831082554 | 66 | 344 | 2.0 | 4.0 | 0.00 | 0.09 | 0.09 | 84 | 1019.8 |
| 20260831081520 | 66 | 97 | 1.0 | 4.0 | 0.00 | 0.09 | 0.09 | 83 | 1019.8 |
| 20260831080055 | 65 | 135 | 1.0 | 2.0 | 0.00 | 0.09 | 0.09 | 87 | 1019.7 |
| 20260831075107 | 64 | 68 | 0.0 | 2.0 | 0.00 | 0.09 | 0.09 | 89 | 1019.6 |
| 20260831074055 | 63 | 218 | 1.0 | 4.0 | 0.00 | 0.09 | 0.09 | 89 | 1019.6 |
| 20260831072608 | 63 | 135 | 1.0 | 2.0 | 0.01 | 0.09 | 0.09 | 91 | 1019.6 |
| 20260831071554 | 62 | 146 | 1.0 | 4.0 | 0.01 | 0.09 | 0.09 | 91 | 1019.7 |
| 20260831070545 | 62 | 97 | 0.0 | 2.0 | 0.01 | 0.09 | 0.09 | 91 | 1019.7 |
| 20260831065055 | 61 | 315 | 2.0 | 4.0 | 0.04 | 0.09 | 0.09 | 91 | 1019.7 |
| 20260831064020 | 61 | 0.0 | 0.0 | 0.05 | 0.09 | 0.09 | 92 | 1019.4 | |
| 20260831063107 | 61 | 0.0 | 2.0 | 0.05 | 0.08 | 0.08 | 91 | 1019.4 | |
| 20260831062054 | 60 | 293 | 2.0 | 4.0 | 0.06 | 0.08 | 0.08 | 92 | 1019.6 |
| 20260831061022 | 60 | 0.0 | 0.0 | 0.06 | 0.08 | 0.08 | 92 | 1019.3 | |
| 20260831060112 | 60 | 135 | 0.0 | 2.0 | 0.06 | 0.08 | 0.08 | 91 | 1019.3 |
| 20260831055107 | 60 | 270 | 0.0 | 2.0 | 0.05 | 0.06 | 0.06 | 91 | 1019.3 |
| 20260831054055 | 60 | 0.0 | 0.0 | 0.04 | 0.05 | 0.05 | 90 | 1019.2 | |
| 20260831052608 | 60 | 0.0 | 0.0 | 0.04 | 0.04 | 0.04 | 89 | 1019.2 | |
| 20260831051030 | 60 | 203 | 0.0 | 2.0 | 0.02 | 0.02 | 0.02 | 89 | 1019.2 |
| 20260831050018 | 60 | 307 | 1.0 | 2.0 | 0.02 | 0.02 | 0.02 | 88 | 1019.3 |
| 20260831045107 | 60 | 306 | 1.0 | 4.0 | 0.01 | 0.01 | 0.01 | 88 | 1019.2 |
| 20260831043543 | 60 | 307 | 2.0 | 6.0 | 0.01 | 0.01 | 0.01 | 86 | 1019.2 |
| 20260831042531 | 60 | 0.0 | 0.0 | 0.00 | 0.00 | 0.00 | 86 | 1019.2 | |
| 20260831041521 | 59 | 103 | 0.0 | 4.0 | 0.00 | 0.00 | 0.00 | 86 | 1019.1 |
| 20260831040030 | 58 | 0.0 | 0.0 | 0.00 | 0.00 | 0.00 | 86 | 1018.7 | |
| 20260831035019 | 58 | 0.0 | 0.0 | 0.00 | 0.00 | 0.00 | 86 | 1018.4 | |
| 20260831034108 | 58 | 0.0 | 0.0 | 0.00 | 0.00 | 0.00 | 86 | 1018.5 | |
| 20260831032531 | 57 | 0.0 | 0.0 | 0.00 | 0.00 | 0.00 | 87 | 1018.5 | |
| 20260831031520 | 57 | 0.0 | 0.0 | 0.00 | 0.00 | 0.00 | 87 | 1018.3 | |
| 20260831030107 | 57 | 0.0 | 0.0 | 0.00 | 0.00 | 0.00 | 87 | 1018.6 | |
| 20260831024556 | 57 | 0.0 | 0.0 | 0.00 | 0.00 | 0.00 | 86 | 1018.8 | |
| 20260831023531 | 57 | 0.0 | 0.0 | 0.00 | 0.00 | 0.00 | 86 | 1018.7 | |
| 20260831022518 | 58 | 0.0 | 0.0 | 0.00 | 0.00 | 0.00 | 85 | 1018.7 | |
| 20260831021608 | 58 | 0.0 | 0.0 | 0.00 | 0.00 | 0.00 | 84 | 1018.9 | |
| 20260831020554 | 58 | 0.0 | 0.0 | 0.00 | 0.00 | 0.00 | 84 | 1019.0 | |
| 20260831015607 | 58 | 0.0 | 0.0 | 0.00 | 0.00 | 0.00 | 84 | 1019.0 | |
| 20260831014109 | 57 | 0.0 | 0.0 | 0.00 | 0.00 | 0.00 | 85 | 1019.0 | |
| 20260831012554 | 57 | 0.0 | 0.0 | 0.00 | 0.00 | 0.00 | 84 | 1019.0 | |
| 20260831011519 | 58 | 0.0 | 0.0 | 0.00 | 0.00 | 0.00 | 82 | 1019.1 | |
| 20260831010054 | 58 | 0.0 | 0.0 | 0.00 | 0.00 | 0.00 | 82 | 1019.2 | |
| 20260831005019 | 57 | 0.0 | 0.0 | 0.00 | 0.00 | 0.00 | 82 | 1019.3 | |
| 20260831004107 | 57 | 0.0 | 0.0 | 0.00 | 0.00 | 0.00 | 82 | 1019.5 | |
| 20260831003056 | 58 | 0.0 | 0.0 | 0.00 | 0.00 | 0.00 | 82 | 1019.6 | |
| 20260831002044 | 57 | 0.0 | 0.0 | 0.00 | 0.00 | 0.00 | 84 | 1019.8 | |
| 20260831001031 | 57 | 0.0 | 0.0 | 0.00 | 0.00 | 0.00 | 84 | 1020.0 | |
| 20260830235609 | 58 | 0.0 | 0.0 | 0.00 | 0.00 | 0.00 | 84 | 1020.3 | |
| 20260830234108 | 58 | 0.0 | 0.0 | 0.00 | 0.00 | 0.00 | 84 | 1020.5 | |
| 20260830233018 | 58 | 0.0 | 0.0 | 0.00 | 0.00 | 0.00 | 84 | 1020.3 | |
| 20260830232106 | 58 | 0.0 | 0.0 | 0.00 | 0.00 | 0.00 | 84 | 1020.3 | |
| 20260830231033 | 57 | 0.0 | 0.0 | 0.00 | 0.00 | 0.00 | 84 | 1020.4 | |
| 20260830225609 | 58 | 0.0 | 0.0 | 0.00 | 0.00 | 0.00 | 83 | 1020.4 | |
| 20260830224030 | 58 | 0.0 | 0.0 | 0.00 | 0.00 | 0.00 | 83 | 1020.5 | |
| 20260830223019 | 59 | 0.0 | 0.0 | 0.00 | 0.00 | 0.00 | 82 | 1020.4 | |
| 20260830222107 | 59 | 0.0 | 0.0 | 0.00 | 0.00 | 0.00 | 81 | 1020.4 | |
| 20260830220518 | 59 | 0.0 | 0.0 | 0.00 | 0.00 | 0.00 | 80 | 1020.5 | |
| 20260830215608 | 60 | 0.0 | 0.0 | 0.00 | 0.00 | 0.00 | 79 | 1020.6 | |
| 20260830214106 | 60 | 0.0 | 0.0 | 0.00 | 0.00 | 0.00 | 80 | 1020.4 |